Terug naar catalogus

ARIANE 1 DEB

ActiefGTO
NORAD 26684·DEBRIS·🇫🇷 France

Gelanceerd Jul 2, 1985 vanaf Guiana Space Centre

Loading…

TLE

VerouderendSource: Space-Track

Epoch: Sep 14, 2026, 11:59 UTC

1 26684U 85056J   26257.49960971  .00000064  00000-0  25826-2 0  9992
2 26684   6.1526  29.0020 7074602 135.0926 351.5177  2.37180525239234

Volg ARIANE 1 DEB in realtime met AllMySat

Download on the App Store